Regional Weather Roundup
Issued by NWS Little Rock, AR

Home | Current Version | Previous Version | Text Only | Print | Product List | Glossary On
Versions: 1 2 3 4 5 6 7 8 9 10 11 12 13 14 15 16 17 18 19 20 21 22 23 24 25 26 27 28 29 30 31 32 33 34 35 36 37 38 39 40 41 42 43 44 45 46 47 48 49 50
000
ASUS44 KLZK 181105
RWRLZK

WEATHER ROUNDUP FOR ARKANSAS
NATIONAL WEATHER SERVICE LITTLE ROCK AR
500 AM CST SAT NOV 18 2017

NOTE: "FAIR" INDICATES FEW OR NO CLOUDS BELOW 12,000 FEET WITH NO
SIGNIFICANT WEATHER AND/OR OBSTRUCTIONS TO VISIBILITY.

ARZ001-003-010-029-181200-
NORTHWEST ARKANSAS

CITY           SKY/WX    TMP DP  RH WIND       PRES   REMARKS
FAYETTEVILLE   CLOUDY    68  63  84 S13G23    29.52S HAZE
FORT SMITH     MOCLDY    73  64  73 SW14      29.53S
HARRISON       PTCLDY    70  61  73 SW13G25   29.51R
BENTONVILLE    CLOUDY    69  61  75 SW16G22   29.52S
ROGERS         CLOUDY    68  61  78 SW16G28   29.51S
SILOAM SPGS    CLOUDY    69  61  75 SW15      29.52R
HIGHFILL       CLOUDY    69  62  78 SW16G24   29.51S
$$

ARZ004-005-016-181200-
NORTH CENTRAL ARKANSAS

CITY           SKY/WX    TMP DP  RH WIND       PRES   REMARKS
BATESVILLE     PTCLDY    70  64  81 S14G30    29.53F
MTN HOME       PTCLDY    69  63  81 SW12G18   29.50R
$$

ARZ040-041-181200-
WEST CENTRAL ARKANSAS

CITY           SKY/WX    TMP DP  RH WIND       PRES   REMARKS
MENA           CLOUDY    72  72 100 SW8G20    29.63S
MOUNT IDA      CLOUDY    72  65  78 VRB6G18   29.60F
$$

ARZ009-017-025-026-028-181200-
NORTHEAST ARKANSAS

CITY           SKY/WX    TMP DP  RH WIND       PRES   REMARKS
JONESBORO      CLOUDY    69  64  84 S25G33    29.57F
NEWPORT        MOCLDY    68  63  84 S23G29    29.56F
WALNUT RIDGE   CLOUDY    69  64  84 S25G33    29.53F
BLYTHEVILLE    CLOUDY    68  62  81 S24G38    29.61F
$$

ARZ022-023-033-042-044-181200-
CENTRAL ARKANSAS

CITY           SKY/WX    TMP DP  RH WIND       PRES   REMARKS
LITTLE ROCK    CLOUDY    69  64  84 S23G37    29.61F
N LITTLE ROCK    N/A     69  64  82 SW13G21   29.62F
JACKSONVILLE   CLOUDY    71  64  79 S18G24    29.60F
SEARCY         CLOUDY    71  66  84 S12G22    29.61F
HOT SPRINGS    CLOUDY    71  65  81 SW14G26   29.64F
RUSSELLVILLE   CLOUDY    73  64  73 S7        29.57S
CLINTON        CLOUDY    72  64  78 S13       29.56F
$$

ARZ036-181200-
EAST ARKANSAS

CITY           SKY/WX    TMP DP  RH WIND       PRES   REMARKS
WEST MEMPHIS   MOCLDY    66  62  87 S24G32    29.66F
$$

ARZ050-053-066-070-073-181200-
SOUTHWEST ARKANSAS

CITY           SKY/WX    TMP DP  RH WIND       PRES   REMARKS
ARKADELPHIA    CLOUDY    70  64  81 S18G25    29.66F
CAMDEN         CLOUDY    68  63  83 SW10      29.70R
TEXARKANA      CLOUDY    70  65  84 S15       29.68S
EL DORADO      MOCLDY    68  66  93 S13       29.72S
DE QUEEN       CLOUDY    70  66  87 SW9       29.62F
$$

ARZ056-057-069-181200-
SOUTHEAST ARKANSAS

CITY           SKY/WX    TMP DP  RH WIND       PRES   REMARKS
PINE BLUFF     MOCLDY    69  62  78 S20G29    29.67F
STUTTGART      CLOUDY    70  63  78 SW18G24   29.67R
MONTICELLO     MOCLDY    68  63  84 S9        29.71F

$$





USA.gov is the U.S. government's official web portal to all federal, state and local government web resources and services.